This demonstration page uses our WeatherBlox Daily Observations layout. Learn more.

Left ArrowRight Arrow

Hourly Observations for January 17, 2015

Temp ( °F °C ) Dew Point ( °F °C ) Humidity (%) Winds ( mph kmh ) Pressure ( in mb ) Visibility ( mi km ) Precip ( " mm )
12:51 am 00:51 Clear 36 2.2 30 -1.1 79 79 Calm 30.19 1022 10 16 0.00 0.00
1:51 am 01:51 Clear 35 1.7 29 -1.7 78 78 Calm 30.18 1022 10 16 0.00 0.00
2:51 am 02:51 Clear 34 1.1 27 -2.8 76 76 Calm 30.18 1022 10 16 0.00 0.00
3:51 am 03:51 Clear 33 0.6 27 -2.8 78 78 Calm 30.18 1022 10 16 0.00 0.00
4:51 am 04:51 Clear 31 -0.6 27 -2.8 85 85 Calm 30.19 1022 10 16 0.00 0.00
5:51 am 05:51 Clear 30 -1.1 26 -3.3 85 85 Calm 30.21 1023 10 16 0.00 0.00
6:51 am 06:51 Clear 30 -1.1 26 -3.3 85 85 Calm 30.26 1025 10 16 0.00 0.00
7:51 am 07:51 Sunny 31 -0.6 27 -2.8 85 85 Calm 30.28 1025 10 16 0.00 0.00
8:51 am 08:51 Sunny 36 2.2 29 -1.7 76 76 Calm 30.29 1026 10 16 0.00 0.00
9:51 am 09:51 Sunny 43 6.1 30 -1.1 60 60 Calm 30.29 1026 10 16 0.00 0.00
10:51 am 10:51 Sunny 49 9.4 29 -1.7 46 46 VRB 3 6 30.30 1026 10 16 0.00 0.00
11:51 am 11:51 Sunny 52 11.1 28 -2.2 40 40 NNW 3 6 30.26 1025 10 16 0.00 0.00
12:51 pm 12:51 Sunny 55 12.8 29 -1.7 37 37 VRB 3 6 30.21 1023 10 16 0.00 0.00
1:51 pm 13:51 Sunny 58 14.4 26 -3.3 29 29 WSW 3 6 30.18 1022 10 16 0.00 0.00
2:51 pm 14:51 Sunny 61 16.1 25 -3.9 25 25 W 5 7 30.16 1021 10 16 0.00 0.00
3:51 pm 15:51 Sunny 63 17.2 25 -3.9 24 24 WNW 3 6 30.16 1021 10 16 0.00 0.00
4:51 pm 16:51 Sunny 63 17.2 24 -4.4 23 23 Calm 30.17 1022 10 16 0.00 0.00
5:51 pm 17:51 Clear 57 13.9 29 -1.7 34 34 Calm 30.19 1023 10 16 0.00 0.00
6:51 pm 18:51 Clear 50 10 35 1.7 57 57 NE 5 7 30.23 1024 10 16 0.00 0.00
7:51 pm 19:51 Clear 48 8.9 34 1.1 58 58 N 3 6 30.25 1024 10 16 0.00 0.00
8:51 pm 20:51 Clear 46 7.8 32 0 58 58 ESE 7 11 30.26 1025 10 16 0.00 0.00
9:51 pm 21:51 Clear 44 6.7 32 0 63 63 ESE 6 9 30.25 1024 10 16 0.00 0.00
10:51 pm 22:51 Clear 47 8.3 30 -1.1 52 52 Calm 30.25 1024 10 16 0.00 0.00
11:51 pm 23:51 Clear 44 6.7 29 -1.7 55 55 E 7 11 30.27 1025 10 16 0.00 0.00

Powered by AerisWeather